Powrót do katalogu

STARLINK-37156

AktywnyŁącznośćVLEO
NORAD 68263·PAYLOAD·🇺🇸 United States

Wystrzelony Mar 19, 2026 z Vandenberg Space Force Base

Loading…

Następne Przeloty (najbliższe 24 godziny)

TLE

ŚwieżeSource: CelesTrak SupGP

Epoka: Sep 14, 2026, 21:31 UTC

1 68263C 26055B   26257.89701389 -.00053624  00000+0 -15838-2 0  2575
2 68263  53.1578 157.6635 0001284  93.4533  78.0947 15.34427365    17

Śledź STARLINK-37156 w czasie rzeczywistym z AllMySat

Download on the App Store